Location: Bruch
(44.2051°N, 0.4120°E)
Time: 09:48:14
(UTC+00:00)

Okean O Rocket - Pass Details

Date: 29 November 2020
Orbit: 622 x 645 km, 98.2° (Epoch: 25 January)

Event Time Altitude Azimuth Distance (km) Brightness Sun altitude
Rises 06:14:42 0° 16° (NNE) 2,957 5.0 -10.1°
Reaches altitude 10° 06:16:56 10° 19° (NNE) 2,046 4.2 -9.7°
Maximum altitude 06:21:22 66° 102° (ESE) 707 2.1 -9.0°
Drops below altitude 10° 06:25:47 10° 185° (S) 2,036 4.5 -8.2°
Sets 06:28:00 0° 188° (S) 2,942 5.2 -7.9°
